"Pseudo-MPEC" for ZGBE54F

Created 2018 Apr 23 1:18:12 UT using Find_Orb

Click here for an explanation of pseudo-MPECs

 
 Astrometry: 
     ZGBE54F  C2018 04 13.46921 17 11 35.63 +29 42 00.9          20.8 GUNEOCPG96
     ZGBE54F  C2018 04 13.47399 17 11 33.03 +29 39 37.4          20.1 GUNEOCPG96
     ZGBE54F  C2018 04 13.47877 17 11 30.50 +29 37 18.7          19.9 GUNEOCPG96
     ZGBE54F  C2018 04 13.48356 17 11 27.77 +29 34 57.3          19.1 GUNEOCPG96
     ZGBE54F  C2018 04 13.48861 17 11 25.27 +29 32 31.2          20.3 GUNEOCPG96
     ZGBE54F  C2018 04 13.49033 17 11 24.36 +29 31 41.1          19.4 GUNEOCPG96
     ZGBE54F  C2018 04 13.49206 17 11 23.51 +29 30 50.4          20.2 GUNEOCPG96
     ZGBE54F  C2018 04 13.49329 17 11 22.82 +29 30 13.9          19.9 GUNEOCPG96
     ZGBE54F  C2018 04 13.49347 17 11 22.74 +29 30 09.5                UNEOCPG96
     ZGBE54F  C2018 04 13.49372 17 11 22.62 +29 30 01.5          20.0 GUNEOCPG96
     ZGBE54F  C2018 04 13.49396 17 11 22.47 +29 29 54.9          20.1 GUNEOCPG96
     ZGBE54F  C2018 04 13.49414 17 11 22.40 +29 29 50.0          20.0 GUNEOCPG96

Station data:
(G96) Mt. Lemmon Survey  (N32.442754 W110.788720)  US/Arizona.  Observers E.
   J. Christensen, A. R. Gibbs, A. D. Grauer, R. E. Hill, J. A. Johnson, R.
   A. Kowalski, S. M. Larson, F. C. Shelly. 1.5-m reflector + CCD.

Orbital elements:  ZGBE54F
   Perigee 2018 Apr 12.576275 +/- 0.297 TT = 13:49:50 (JD 2458221.076275)
Epoch 2018 Apr 13.0 TT = JDT 2458221.5                        AutoNEOCP
q 70110.6785 +/- 51826              (J2000 equator)
H   30.0  G 0.15                    Peri.   61.98680 +/- 15
                                    Node    82.64739 +/- 11
e  10.3942214 +/- 9.23              Incl.   81.79164 +/- 8
From 12 observations 2018 Apr. 13 (35.9 min); mean residual 0".60
Residuals in arcseconds: 
180413 G96  .19-  .76+    180413 G96  .42+  .75+    180413 G96  .04-  .20+    
180413 G96  .13+  1.4-    180413 G96  .14+  .68+    180413 G96  .05+  .55-    
180413 G96  .87+  .55+    180413 G96  .63+  .22+    180413 G96  .32-  .20-    
180413 G96  1.4-  .48-    180413 G96  .19-  .61-    180413 G96  .05-  .11+    

Ephemerides (geocentric):
Date (UTC) HH   RA              Dec         delta   r     elong  mag " sig PA
---- -- -- --  ------------   ------------  ------ ------ -----  --- ---- ---
2018 04 23 01  17 14 51.908   +22 42 04.88  .04434 1.0290 121.1 25.3 5225  35
2018 04 23 02  17 14 51.308   +22 41 49.03  .04452 1.0291 121.1 25.4 5228  35
2018 04 23 03  17 14 50.706   +22 41 33.23  .04469 1.0292 121.2 25.4 5232  35
2018 04 23 04  17 14 50.100   +22 41 17.47  .04487 1.0293 121.2 25.4 5235  35
2018 04 23 05  17 14 49.492   +22 41 01.75  .04504 1.0295 121.2 25.4 5239  35
2018 04 23 06  17 14 48.881   +22 40 46.08  .04522 1.0296 121.2 25.4 5242  35
2018 04 23 07  17 14 48.267   +22 40 30.46  .04540 1.0297 121.3 25.4 5245  35
2018 04 23 08  17 14 47.650   +22 40 14.87  .04557 1.0298 121.3 25.4 5249  35
2018 04 23 09  17 14 47.031   +22 39 59.32  .04575 1.0300 121.3 25.4 5252  35
2018 04 23 10  17 14 46.408   +22 39 43.82  .04592 1.0301 121.3 25.4 5255  35
2018 04 23 11  17 14 45.783   +22 39 28.35  .04610 1.0302 121.4 25.4 5259  35
2018 04 23 12  17 14 45.155   +22 39 12.92  .04627 1.0303 121.4 25.4 5262  35
2018 04 23 13  17 14 44.524   +22 38 57.53  .04645 1.0305 121.4 25.4 5265  35
2018 04 23 14  17 14 43.890   +22 38 42.18  .04663 1.0306 121.4 25.4 5268  35
2018 04 23 15  17 14 43.254   +22 38 26.86  .04680 1.0307 121.5 25.5 5272  35
2018 04 23 16  17 14 42.615   +22 38 11.58  .04698 1.0308 121.5 25.5 5275  35
2018 04 23 17  17 14 41.973   +22 37 56.33  .04715 1.0310 121.5 25.5 5278  35
2018 04 23 18  17 14 41.328   +22 37 41.12  .04733 1.0311 121.6 25.5 5281  35
2018 04 23 19  17 14 40.681   +22 37 25.94  .04750 1.0312 121.6 25.5 5284  35
2018 04 23 20  17 14 40.031   +22 37 10.79  .04768 1.0314 121.6 25.5 5287  35
2018 04 23 21  17 14 39.378   +22 36 55.67  .04785 1.0315 121.6 25.5 5291  35
2018 04 23 22  17 14 38.723   +22 36 40.59  .04803 1.0316 121.7 25.5 5294  35
2018 04 23 23  17 14 38.064   +22 36 25.54  .04821 1.0317 121.7 25.5 5297  35
2018 04 24 00  17 14 37.403   +22 36 10.52  .04838 1.0319 121.7 25.5 5300  35
2018 04 24 01  17 14 36.740   +22 35 55.52  .04856 1.0320 121.7 25.5 5303  35
2018 04 24 02  17 14 36.073   +22 35 40.56  .04873 1.0321 121.8 25.5 5306  35
2018 04 24 03  17 14 35.404   +22 35 25.62  .04891 1.0322 121.8 25.5 5309  35
2018 04 24 04  17 14 34.732   +22 35 10.71  .04908 1.0324 121.8 25.5 5312  35
2018 04 24 05  17 14 34.058   +22 34 55.83  .04926 1.0325 121.8 25.6 5315  35
2018 04 24 06  17 14 33.381   +22 34 40.98  .04944 1.0326 121.9 25.6 5318  35
2018 04 24 07  17 14 32.701   +22 34 26.15  .04961 1.0328 121.9 25.6 5321  35
2018 04 24 08  17 14 32.018   +22 34 11.35  .04979 1.0329 121.9 25.6 5323  35
2018 04 24 09  17 14 31.333   +22 33 56.57  .04996 1.0330 122.0 25.6 5326  35
2018 04 24 10  17 14 30.645   +22 33 41.82  .05014 1.0331 122.0 25.6 5329  35
2018 04 24 11  17 14 29.955   +22 33 27.09  .05031 1.0333 122.0 25.6 5332  35
2018 04 24 12  17 14 29.262   +22 33 12.38  .05049 1.0334 122.0 25.6 5335  35
2018 04 24 13  17 14 28.566   +22 32 57.70  .05066 1.0335 122.1 25.6 5338  35
2018 04 24 14  17 14 27.868   +22 32 43.03  .05084 1.0337 122.1 25.6 5340  35
2018 04 24 15  17 14 27.166   +22 32 28.39  .05102 1.0338 122.1 25.6 5343  35
2018 04 24 16  17 14 26.463   +22 32 13.77  .05119 1.0339 122.1 25.6 5346  35
2018 04 24 17  17 14 25.756   +22 31 59.18  .05137 1.0341 122.2 25.6 5349  35
2018 04 24 18  17 14 25.047   +22 31 44.60  .05154 1.0342 122.2 25.6 5351  35
2018 04 24 19  17 14 24.336   +22 31 30.04  .05172 1.0343 122.2 25.6 5354  35
2018 04 24 20  17 14 23.622   +22 31 15.50  .05189 1.0344 122.2 25.7 5357  35
2018 04 24 21  17 14 22.905   +22 31 00.98  .05207 1.0346 122.3 25.7 5360  35
2018 04 24 22  17 14 22.185   +22 30 46.47  .05224 1.0347 122.3 25.7 5362  35
2018 04 24 23  17 14 21.463   +22 30 31.99  .05242 1.0348 122.3 25.7 5365  35
2018 04 25 00  17 14 20.738   +22 30 17.52  .05260 1.0350 122.3 25.7 5368  35